This is the latest recevied weather packets stored in our database for station/object IN3XSV. If no packets are shown the sender has not sent any weather packets the latest 10 day(s).
| Time | Temp. | Humidity | Pressure | Rain* | Wind** | Luminosity | Snow |
|---|---|---|---|---|---|---|---|
| 1778275413 | 12.78° C | 74% | 1010.6 hPa | 0 mm | - | - | - |
| 1778275301 | 13.33° C | 73% | 1010.6 hPa | 0 mm | - | - | - |
| 1778275113 | 13.33° C | 73% | 1010.6 hPa | 0 mm | - | - | - |
| 1778274813 | 12.78° C | 73% | 1010.6 hPa | 0 mm | - | - | - |
| 1778274513 | 12.78° C | 73% | 1010.4 hPa | 0 mm | - | - | - |
| 1778274213 | 13.33° C | 73% | 1010.5 hPa | 0 mm | - | - | - |
| 1778273913 | 13.33° C | 73% | 1010.5 hPa | 0 mm | - | - | - |
| 1778273613 | 13.33° C | 72% | 1010.4 hPa | 0 mm | - | - | - |
| 1778273313 | 13.89° C | 71% | 1010.3 hPa | 0 mm | - | - | - |
| 1778273013 | 13.89° C | 70% | 1010.3 hPa | 0 mm | - | - | - |
| 1778272713 | 13.89° C | 70% | 1010.2 hPa | 0 mm | - | - | - |
| 1778272413 | 13.89° C | 70% | 1010.2 hPa | 0 mm | - | - | - |
| 1778272113 | 14.44° C | 69% | 1010.1 hPa | 0 mm | - | - | - |
| 1778271813 | 14.44° C | 69% | 1010 hPa | 0 mm | - | - | - |
| 1778271513 | 14.44° C | 69% | 1009.8 hPa | 0 mm | - | - | - |
| 1778271213 | 14.44° C | 70% | 1010 hPa | 0 mm | - | - | - |
| 1778270913 | 14.44° C | 69% | 1009.8 hPa | 0 mm | - | - | - |
| 1778270613 | 15.56° C | 67% | 1009.7 hPa | 0 mm | - | - | - |
| 1778270313 | 16.11° C | 66% | 1009.6 hPa | 0 mm | - | - | - |
| 1778270013 | 15.56° C | 65% | 1009.6 hPa | 0 mm | - | - | - |
| 1778269713 | 15.56° C | 65% | 1009.4 hPa | 0 mm | - | - | - |
| 1778269413 | 15.56° C | 66% | 1009.6 hPa | 0 mm | - | - | - |
| 1778269113 | 15.56° C | 66% | 1009.5 hPa | 0 mm | - | - | - |
| 1778268813 | 15.56° C | 66% | 1009.4 hPa | 0 mm | - | - | - |
| 1778268513 | 16.11° C | 66% | 1009.3 hPa | 0 mm | - | - | - |
* Rain latest hour (hover to see other rain measurements)
** Current wind speed in m/s (hover to see current wind gust speed)